Time,TemperatureF,DewpointF,PressureIn,WindDirection,WindDirectionDegrees,WindSpeedMPH,WindSpeedGustMPH,Humidity,HourlyPrecipIn,Conditions,Clouds,dailyrainin,SolarRadiationWatts/m^2,SoftwareType,DateUTC
2013-01-22 00:05:00,19.0,14.0,-100.00,North,352,2.0,5.0,81,0.00,,,0.00,0.000000,,2013-01-22 05:05:00,
2013-01-22 00:12:00,19.0,14.0,-100.00,North,352,2.0,5.0,81,0.00,,,0.00,0.000000,,2013-01-22 05:12:00,
2013-01-22 00:43:00,19.0,15.0,-100.00,SW,230,2.0,6.0,83,0.00,,,0.00,0.000000,,2013-01-22 05:43:00,
2013-01-22 00:53:00,19.0,15.0,-100.00,SW,230,2.0,6.0,83,0.00,,,0.00,0.000000,,2013-01-22 05:53:00,
2013-01-22 01:02:00,19.0,15.0,-100.00,SW,230,2.0,6.0,83,0.00,,,0.00,0.000000,,2013-01-22 06:02:00,
2013-01-22 01:12:00,19.0,15.0,-100.00,SW,230,2.0,6.0,83,0.00,,,0.00,0.000000,,2013-01-22 06:12:00,
2013-01-22 01:33:00,19.0,14.0,-100.00,North,349,4.0,6.0,79,0.00,,,0.00,0.000000,,2013-01-22 06:33:00,
2013-01-22 01:43:00,19.0,14.0,-100.00,North,349,4.0,6.0,79,0.00,,,0.00,0.000000,,2013-01-22 06:43:00,
2013-01-22 01:53:00,19.0,14.0,-100.00,North,349,4.0,6.0,79,0.00,,,0.00,0.000000,,2013-01-22 06:53:00,
2013-01-22 02:02:00,19.0,14.0,-100.00,North,349,4.0,6.0,79,0.00,,,0.00,0.000000,,2013-01-22 07:02:00,
2013-01-22 02:12:00,19.0,14.0,-100.00,North,349,4.0,6.0,79,0.00,,,0.00,0.000000,,2013-01-22 07:12:00,
2013-01-22 02:33:00,15.0,11.0,-100.00,North,350,4.0,8.0,82,0.00,,,0.00,0.000000,,2013-01-22 07:33:00,
2013-01-22 02:43:00,15.0,11.0,-100.00,North,350,4.0,8.0,82,0.00,,,0.00,0.000000,,2013-01-22 07:43:00,
2013-01-22 02:53:00,15.0,11.0,-100.00,North,350,4.0,8.0,82,0.00,,,0.00,0.000000,,2013-01-22 07:53:00,
2013-01-22 03:02:00,15.0,11.0,-100.00,North,350,4.0,8.0,82,0.00,,,0.00,0.000000,,2013-01-22 08:02:00,
2013-01-22 03:12:00,15.0,11.0,-100.00,North,350,4.0,8.0,82,0.00,,,0.00,0.000000,,2013-01-22 08:12:00,
2013-01-22 03:43:00,14.0,9.0,-100.00,WNW,303,3.0,8.0,81,0.00,,,0.00,0.000000,,2013-01-22 08:43:00,
2013-01-22 03:53:00,14.0,9.0,-100.00,WNW,303,3.0,8.0,81,0.00,,,0.00,0.000000,,2013-01-22 08:53:00,
2013-01-22 04:02:00,14.0,9.0,-100.00,WNW,303,3.0,8.0,81,0.00,,,0.00,0.000000,,2013-01-22 09:02:00,
2013-01-22 04:12:00,14.0,9.0,-100.00,WNW,303,3.0,8.0,81,0.00,,,0.00,0.000000,,2013-01-22 09:12:00,
2013-01-22 04:33:00,14.0,9.0,-100.00,North,350,3.0,6.0,81,0.00,,,0.00,0.000000,,2013-01-22 09:33:00,
2013-01-22 04:43:00,14.0,9.0,-100.00,North,350,3.0,6.0,81,0.00,,,0.00,0.000000,,2013-01-22 09:43:00,
2013-01-22 04:53:00,14.0,9.0,-100.00,North,350,3.0,6.0,81,0.00,,,0.00,0.000000,,2013-01-22 09:53:00,
2013-01-22 05:03:00,14.0,9.0,-100.00,North,350,3.0,6.0,81,0.00,,,0.00,0.000000,,2013-01-22 10:03:00,
2013-01-22 05:12:00,14.0,9.0,-100.00,North,350,3.0,6.0,81,0.00,,,0.00,0.000000,,2013-01-22 10:12:00,
2013-01-22 05:43:00,12.0,7.0,-100.00,NNW,337,4.0,9.0,80,0.00,,,0.00,0.000000,,2013-01-22 10:43:00,
2013-01-22 05:53:00,12.0,7.0,-100.00,NNW,337,4.0,9.0,80,0.00,,,0.00,0.000000,,2013-01-22 10:53:00,
2013-01-22 06:02:00,12.0,7.0,-100.00,NNW,337,4.0,9.0,80,0.00,,,0.00,0.000000,,2013-01-22 11:02:00,
2013-01-22 06:12:00,12.0,7.0,-100.00,NNW,337,4.0,9.0,80,0.00,,,0.00,0.000000,,2013-01-22 11:12:00,
2013-01-22 06:33:00,11.0,6.0,-100.00,NNE,31,2.0,8.0,80,0.00,,,0.00,0.000000,,2013-01-22 11:33:00,
2013-01-22 06:43:00,11.0,6.0,-100.00,NNE,31,2.0,8.0,80,0.00,,,0.00,0.000000,,2013-01-22 11:43:00,
2013-01-22 06:54:00,11.0,6.0,-100.00,NNE,31,2.0,8.0,80,0.00,,,0.00,0.000000,,2013-01-22 11:54:00,
2013-01-22 07:04:00,11.0,6.0,-100.00,NNE,31,2.0,8.0,80,0.00,,,0.00,0.000000,,2013-01-22 12:04:00,
2013-01-22 07:13:00,11.0,6.0,-100.00,NNE,31,2.0,8.0,80,0.00,,,0.00,0.000000,,2013-01-22 12:13:00,
2013-01-22 07:14:00,10.0,5.0,-100.00,North,2,1.0,5.0,79,0.00,,,0.00,1.000000,,2013-01-22 12:14:00,
2013-01-22 07:43:00,10.0,5.0,-100.00,North,2,1.0,5.0,79,0.00,,,0.00,1.000000,,2013-01-22 12:43:00,
2013-01-22 07:53:00,10.0,5.0,-100.00,North,2,1.0,5.0,79,0.00,,,0.00,1.000000,,2013-01-22 12:53:00,
2013-01-22 08:04:00,10.0,5.0,-100.00,North,2,1.0,5.0,79,0.00,,,0.00,1.000000,,2013-01-22 13:04:00,
2013-01-22 08:34:00,11.0,6.0,-100.00,NNE,18,3.0,4.0,81,0.00,,,0.00,9.000000,,2013-01-22 13:34:00,
2013-01-22 08:43:00,11.0,6.0,-100.00,NNE,18,3.0,4.0,81,0.00,,,0.00,9.000000,,2013-01-22 13:43:00,
2013-01-22 08:54:00,11.0,6.0,-100.00,NNE,18,3.0,4.0,81,0.00,,,0.00,9.000000,,2013-01-22 13:54:00,
2013-01-22 09:03:00,11.0,6.0,-100.00,NNE,18,3.0,4.0,81,0.00,,,0.00,9.000000,,2013-01-22 14:03:00,
2013-01-22 09:13:00,11.0,6.0,-100.00,NNE,18,3.0,4.0,81,0.00,,,0.00,9.000000,,2013-01-22 14:13:00,
2013-01-22 09:34:00,14.0,7.0,-100.00,West,259,5.0,9.0,72,0.00,,,0.00,40.000000,,2013-01-22 14:34:00,
2013-01-22 09:44:00,14.0,7.0,-100.00,West,259,5.0,9.0,72,0.00,,,0.00,40.000000,,2013-01-22 14:44:00,
2013-01-22 09:54:00,14.0,7.0,-100.00,West,259,5.0,9.0,72,0.00,,,0.00,40.000000,,2013-01-22 14:54:00,
2013-01-22 10:04:00,14.0,7.0,-100.00,West,259,5.0,9.0,72,0.00,,,0.00,40.000000,,2013-01-22 15:04:00,
2013-01-22 10:13:00,14.0,7.0,-100.00,West,259,5.0,9.0,72,0.00,,,0.00,40.000000,,2013-01-22 15:13:00,
2013-01-22 10:44:00,16.0,3.0,-100.00,WSW,254,8.0,16.0,55,0.00,,,0.00,247.000000,,2013-01-22 15:44:00,
2013-01-22 10:54:00,16.0,3.0,-100.00,WSW,254,8.0,16.0,55,0.00,,,0.00,247.000000,,2013-01-22 15:54:00,
2013-01-22 11:04:00,16.0,3.0,-100.00,WSW,254,8.0,16.0,55,0.00,,,0.00,247.000000,,2013-01-22 16:04:00,
2013-01-22 11:13:00,16.0,3.0,-100.00,WSW,254,8.0,16.0,55,0.00,,,0.00,247.000000,,2013-01-22 16:13:00,
2013-01-22 11:43:00,18.0,3.0,-100.00,WSW,253,8.0,18.0,52,0.00,,,0.00,412.000000,,2013-01-22 16:43:00,
2013-01-22 11:54:00,18.0,3.0,-100.00,WSW,253,8.0,18.0,52,0.00,,,0.00,412.000000,,2013-01-22 16:54:00,
2013-01-22 12:04:00,18.0,3.0,-100.00,WSW,253,8.0,18.0,52,0.00,,,0.00,412.000000,,2013-01-22 17:04:00,
2013-01-22 12:13:00,18.0,3.0,-100.00,WSW,253,8.0,18.0,52,0.00,,,0.00,412.000000,,2013-01-22 17:13:00,
2013-01-22 12:35:00,18.0,3.0,-100.00,WSW,251,9.0,18.0,50,0.00,,,0.00,446.000000,,2013-01-22 17:35:00,
2013-01-22 12:44:00,18.0,3.0,-100.00,WSW,251,9.0,18.0,50,0.00,,,0.00,446.000000,,2013-01-22 17:44:00,
2013-01-22 12:54:00,18.0,3.0,-100.00,WSW,251,9.0,18.0,50,0.00,,,0.00,446.000000,,2013-01-22 17:54:00,
2013-01-22 13:04:00,18.0,3.0,-100.00,WSW,251,9.0,18.0,50,0.00,,,0.00,446.000000,,2013-01-22 18:04:00,
2013-01-22 13:13:00,18.0,3.0,-100.00,WSW,251,9.0,18.0,50,0.00,,,0.00,446.000000,,2013-01-22 18:13:00,
2013-01-22 13:34:00,16.0,1.0,-100.00,WSW,246,9.0,16.0,50,0.00,,,0.00,240.000000,,2013-01-22 18:34:00,
2013-01-22 13:44:00,16.0,1.0,-100.00,WSW,246,9.0,16.0,50,0.00,,,0.00,240.000000,,2013-01-22 18:44:00,
2013-01-22 13:54:00,16.0,1.0,-100.00,WSW,246,9.0,16.0,50,0.00,,,0.00,240.000000,,2013-01-22 18:54:00,
2013-01-22 14:04:00,16.0,1.0,-100.00,WSW,246,9.0,16.0,50,0.00,,,0.00,240.000000,,2013-01-22 19:04:00,
2013-01-22 14:13:00,16.0,1.0,-100.00,WSW,246,9.0,16.0,50,0.00,,,0.00,240.000000,,2013-01-22 19:13:00,
2013-01-22 14:44:00,17.0,2.0,-100.00,WSW,249,6.0,17.0,50,0.00,,,0.00,285.000000,,2013-01-22 19:44:00,
2013-01-22 14:54:00,17.0,2.0,-100.00,WSW,249,6.0,17.0,50,0.00,,,0.00,285.000000,,2013-01-22 19:54:00,
2013-01-22 15:03:00,17.0,2.0,-100.00,WSW,249,6.0,17.0,50,0.00,,,0.00,285.000000,,2013-01-22 20:03:00,
2013-01-22 15:13:00,17.0,2.0,-100.00,WSW,249,6.0,17.0,50,0.00,,,0.00,285.000000,,2013-01-22 20:13:00,
2013-01-22 15:34:00,16.0,-2.0,-100.00,WSW,254,8.0,16.0,43,0.00,,,-99.99,220.000000,,2013-01-22 20:34:00,
2013-01-22 15:43:00,16.0,-2.0,-100.00,WSW,254,8.0,16.0,43,0.00,,,-99.99,220.000000,,2013-01-22 20:43:00,
2013-01-22 15:54:00,16.0,-2.0,-100.00,WSW,254,8.0,16.0,43,0.00,,,-99.99,220.000000,,2013-01-22 20:54:00,
2013-01-22 16:04:00,16.0,-2.0,-100.00,WSW,254,8.0,16.0,43,0.00,,,-99.99,220.000000,,2013-01-22 21:04:00,
2013-01-22 16:13:00,16.0,-2.0,-100.00,WSW,254,8.0,16.0,43,0.00,,,-99.99,220.000000,,2013-01-22 21:13:00,
2013-01-22 16:43:00,16.0,-8.0,-100.00,West,274,8.0,17.0,33,0.00,,,0.00,94.000000,,2013-01-22 21:43:00,
2013-01-22 16:53:00,16.0,-8.0,-100.00,West,274,8.0,17.0,33,0.00,,,0.00,94.000000,,2013-01-22 21:53:00,
2013-01-22 17:03:00,16.0,-8.0,-100.00,West,274,8.0,17.0,33,0.00,,,0.00,94.000000,,2013-01-22 22:03:00,
2013-01-22 17:13:00,16.0,-8.0,-100.00,West,274,8.0,17.0,33,0.00,,,0.00,94.000000,,2013-01-22 22:13:00,
2013-01-22 17:43:00,13.0,-5.0,-100.00,NW,320,4.0,16.0,43,0.00,,,0.00,6.000000,,2013-01-22 22:43:00,
2013-01-22 17:53:00,13.0,-5.0,-100.00,NW,320,4.0,16.0,43,0.00,,,0.00,6.000000,,2013-01-22 22:53:00,
2013-01-22 18:03:00,13.0,-5.0,-100.00,NW,320,4.0,16.0,43,0.00,,,0.00,6.000000,,2013-01-22 23:03:00,
2013-01-22 18:12:00,13.0,-5.0,-100.00,NW,320,4.0,16.0,43,0.00,,,0.00,6.000000,,2013-01-22 23:12:00,
2013-01-22 18:34:00,12.0,-7.0,-100.00,NW,321,4.0,13.0,42,0.00,,,0.00,0.000000,,2013-01-22 23:34:00,
2013-01-22 18:43:00,12.0,-7.0,-100.00,NW,321,4.0,13.0,42,0.00,,,0.00,0.000000,,2013-01-22 23:43:00,
2013-01-22 18:53:00,12.0,-7.0,-100.00,NW,321,4.0,13.0,42,0.00,,,0.00,0.000000,,2013-01-22 23:53:00,
2013-01-22 19:03:00,12.0,-7.0,-100.00,NW,321,4.0,13.0,42,0.00,,,0.00,0.000000,,2013-01-23 00:03:00,
2013-01-22 19:12:00,12.0,-7.0,-100.00,NW,321,4.0,13.0,42,0.00,,,0.00,0.000000,,2013-01-23 00:12:00,
2013-01-22 19:43:00,10.0,-10.0,-100.00,NNW,347,4.0,10.0,39,0.00,,,0.00,0.000000,,2013-01-23 00:43:00,
2013-01-22 19:53:00,10.0,-10.0,-100.00,NNW,347,4.0,10.0,39,0.00,,,0.00,0.000000,,2013-01-23 00:53:00,
2013-01-22 20:03:00,10.0,-10.0,-100.00,NNW,347,4.0,10.0,39,0.00,,,0.00,0.000000,,2013-01-23 01:03:00,
2013-01-22 20:13:00,10.0,-10.0,-100.00,NNW,347,4.0,10.0,39,0.00,,,0.00,0.000000,,2013-01-23 01:13:00,
2013-01-22 20:43:00,9.0,-10.0,-100.00,WNW,285,3.0,10.0,40,0.00,,,0.00,0.000000,,2013-01-23 01:43:00,
2013-01-22 20:53:00,9.0,-10.0,-100.00,WNW,285,3.0,10.0,40,0.00,,,0.00,0.000000,,2013-01-23 01:53:00,
2013-01-22 21:03:00,9.0,-10.0,-100.00,WNW,285,3.0,10.0,40,0.00,,,0.00,0.000000,,2013-01-23 02:03:00,
2013-01-22 21:13:00,9.0,-10.0,-100.00,WNW,285,3.0,10.0,40,0.00,,,0.00,0.000000,,2013-01-23 02:13:00,
2013-01-22 21:43:00,8.0,-8.0,-100.00,North,353,3.0,7.0,48,0.00,,,0.00,0.000000,,2013-01-23 02:43:00,
2013-01-22 21:54:00,8.0,-8.0,-100.00,North,353,3.0,7.0,48,0.00,,,0.00,0.000000,,2013-01-23 02:54:00,
2013-01-22 22:03:00,8.0,-8.0,-100.00,North,353,3.0,7.0,48,0.00,,,0.00,0.000000,,2013-01-23 03:03:00,
2013-01-22 22:13:00,8.0,-8.0,-100.00,North,353,3.0,7.0,48,0.00,,,0.00,0.000000,,2013-01-23 03:13:00,
2013-01-22 22:33:00,8.0,-9.0,-100.00,WSW,237,1.0,7.0,44,0.00,,,0.00,0.000000,,2013-01-23 03:33:00,
2013-01-22 22:43:00,8.0,-9.0,-100.00,WSW,237,1.0,7.0,44,0.00,,,0.00,0.000000,,2013-01-23 03:43:00,
2013-01-22 22:53:00,8.0,-9.0,-100.00,WSW,237,1.0,7.0,44,0.00,,,0.00,0.000000,,2013-01-23 03:53:00,
2013-01-22 23:03:00,8.0,-9.0,-100.00,WSW,237,1.0,7.0,44,0.00,,,0.00,0.000000,,2013-01-23 04:03:00,
2013-01-22 23:13:00,8.0,-9.0,-100.00,WSW,237,1.0,7.0,44,0.00,,,0.00,0.000000,,2013-01-23 04:13:00,
2013-01-22 23:33:00,7.0,-10.0,-100.00,SW,217,3.0,8.0,45,0.00,,,0.00,0.000000,,2013-01-23 04:33:00,
2013-01-22 23:43:00,7.0,-10.0,-100.00,SW,217,3.0,8.0,45,0.00,,,0.00,0.000000,,2013-01-23 04:43:00,
2013-01-22 23:53:00,7.0,-10.0,-100.00,SW,217,3.0,8.0,45,0.00,,,0.00,0.000000,,2013-01-23 04:53:00,